SB KEPS @ AMSAT $ORB15085.O Orbital Elements 15085.OSCAR
HR AMSAT ORBITAL ELEMENTS FOR OSCAR SATELLITES FROM WA5QGD FORT WORTH,TX March 26, 2015 BID: ORB15085.O TO ALL RADIO AMATEURS BT
Satellite: AO-07 Catalog number: 07530 Epoch time: 15085.49439727 Element set: 999 Inclination: 101.5126 deg RA of node: 063.4285 deg Eccentricity: 0.0012358 Arg of perigee: 103.5423 deg Mean anomaly: 010.7417 deg Mean motion: 12.53612923 rev/day Decay rate: -1.1e-07 rev/day^2 Epoch rev: 84689 Checksum: 297
Satellite: FO-29 Catalog number: 24278 Epoch time: 15085.86029150 Element set: 999 Inclination: 098.5318 deg RA of node: 065.8204 deg Eccentricity: 0.0349399 Arg of perigee: 284.3399 deg Mean anomaly: 191.1371 deg Mean motion: 13.53047887 rev/day Decay rate: -2.0e-08 rev/day^2 Epoch rev: 91889 Checksum: 364
Satellite: SO-33 Catalog number: 25509 Epoch time: 15085.84369884 Element set: 999 Inclination: 031.4326 deg RA of node: 358.4129 deg Eccentricity: 0.0347969 Arg of perigee: 071.4560 deg Mean anomaly: 292.3538 deg Mean motion: 14.29923329 rev/day Decay rate: 1.212e-05 rev/day^2 Epoch rev: 85763 Checksum: 355
Satellite: RS-22 Catalog number: 27939 Epoch time: 15085.62635334 Element set: 999 Inclination: 097.8328 deg RA of node: 251.2424 deg Eccentricity: 0.0012295 Arg of perigee: 292.2649 deg Mean anomaly: 067.7254 deg Mean motion: 14.65887375 rev/day Decay rate: 1.150e-05 rev/day^2 Epoch rev: 61409 Checksum: 343
Satellite: HO-68 Catalog number: 36122 Epoch time: 15085.85303183 Element set: 999 Inclination: 100.2045 deg RA of node: 133.5599 deg Eccentricity: 0.0007071 Arg of perigee: 310.8327 deg Mean anomaly: 049.2177 deg Mean motion: 13.16325036 rev/day Decay rate: -6.0e-07 rev/day^2 Epoch rev: 25362 Checksum: 287
Satellite: AO-73 Catalog number: 39444 Epoch time: 15084.80434916 Element set: 999 Inclination: 097.7386 deg RA of node: 150.6041 deg Eccentricity: 0.0061198 Arg of perigee: 048.6627 deg Mean anomaly: 311.9828 deg Mean motion: 14.79856414 rev/day Decay rate: 2.948e-05 rev/day^2 Epoch rev: 7108 Checksum: 358
Satellite: EO-79 Catalog number: 40025 Epoch time: 15085.44787109 Element set: 999 Inclination: 097.9601 deg RA of node: 345.5792 deg Eccentricity: 0.0014505 Arg of perigee: 092.7249 deg Mean anomaly: 267.5591 deg Mean motion: 14.86752693 rev/day Decay rate: 2.433e-05 rev/day^2 Epoch rev: 4150 Checksum: 345
/EX SB KEPS @ AMSAT $ORB15085.D Orbital Elements 15085.MICROS
HR AMSAT ORBITAL ELEMENTS FOR THE MICROSATS FROM WA5QGD FORT WORTH,TX March 26, 2015 BID: ORB15085.D TO ALL RADIO AMATEURS BT
Satellite: UO-11 Catalog number: 14781 Epoch time: 15085.14105625 Element set: 999 Inclination: 097.8116 deg RA of node: 144.2330 deg Eccentricity: 0.0008228 Arg of perigee: 351.7992 deg Mean anomaly: 008.3086 deg Mean motion: 14.82244492 rev/day Decay rate: 1.112e-05 rev/day^2 Epoch rev: 66972 Checksum: 307
Satellite: AO-16 Catalog number: 20439 Epoch time: 15085.09361294 Element set: 999 Inclination: 098.5352 deg RA of node: 022.5354 deg Eccentricity: 0.0011831 Arg of perigee: 050.1986 deg Mean anomaly: 016.9649 deg Mean motion: 14.32509461 rev/day Decay rate: 2.54e-06 rev/day^2 Epoch rev: 31484 Checksum: 312
Satellite: LO-19 Catalog number: 20442 Epoch time: 15085.79584273 Element set: 999 Inclination: 098.5062 deg RA of node: 023.0324 deg Eccentricity: 0.0012567 Arg of perigee: 036.9182 deg Mean anomaly: 323.2864 deg Mean motion: 14.32704584 rev/day Decay rate: 2.44e-06 rev/day^2 Epoch rev: 31514 Checksum: 307
Satellite: AO-27 Catalog number: 22825 Epoch time: 15085.84160461 Element set: 999 Inclination: 098.7002 deg RA of node: 035.9687 deg Eccentricity: 0.0008232 Arg of perigee: 182.2890 deg Mean anomaly: 230.8197 deg Mean motion: 14.29852272 rev/day Decay rate: 2.04e-06 rev/day^2 Epoch rev: 12117 Checksum: 313
Satellite: IO-26 Catalog number: 22826 Epoch time: 15084.85662211 Element set: 999 Inclination: 098.6945 deg RA of node: 035.1628 deg Eccentricity: 0.0008851 Arg of perigee: 177.5596 deg Mean anomaly: 182.5631 deg Mean motion: 14.30165788 rev/day Decay rate: 2.40e-06 rev/day^2 Epoch rev: 12117 Checksum: 329
Satellite: GO-32 Catalog number: 25397 Epoch time: 15084.95075457 Element set: 999 Inclination: 098.5109 deg RA of node: 038.0429 deg Eccentricity: 0.0001182 Arg of perigee: 151.3774 deg Mean anomaly: 248.8738 deg Mean motion: 14.23527860 rev/day Decay rate: 1.29e-06 rev/day^2 Epoch rev: 86795 Checksum: 351
Satellite: NO-44 Catalog number: 26931 Epoch time: 15085.84841541 Element set: 999 Inclination: 067.0528 deg RA of node: 029.4808 deg Eccentricity: 0.0006417 Arg of perigee: 264.1463 deg Mean anomaly: 095.8906 deg Mean motion: 14.30279252 rev/day Decay rate: 2.44e-06 rev/day^2 Epoch rev: 70402 Checksum: 318
Satellite: SO-50 Catalog number: 27607 Epoch time: 15085.50586164 Element set: 999 Inclination: 064.5540 deg RA of node: 091.2313 deg Eccentricity: 0.0077071 Arg of perigee: 304.5861 deg Mean anomaly: 054.7986 deg Mean motion: 14.74553481 rev/day Decay rate: 1.534e-05 rev/day^2 Epoch rev: 65909 Checksum: 332
Satellite: CO-55 Catalog number: 27844 Epoch time: 15084.60052846 Element set: 999 Inclination: 098.6977 deg RA of node: 094.3165 deg Eccentricity: 0.0009801 Arg of perigee: 175.6298 deg Mean anomaly: 296.5718 deg Mean motion: 14.21744745 rev/day Decay rate: 3.85e-06 rev/day^2 Epoch rev: 60856 Checksum: 369
Satellite: CO-57 Catalog number: 27848 Epoch time: 15085.59278229 Element set: 999 Inclination: 098.7073 deg RA of node: 095.1588 deg Eccentricity: 0.0009605 Arg of perigee: 179.9806 deg Mean anomaly: 331.2912 deg Mean motion: 14.21400183 rev/day Decay rate: 3.24e-06 rev/day^2 Epoch rev: 60861 Checksum: 346
Satellite: AO-51 Catalog number: 28375 Epoch time: 15084.81534784 Element set: 999 Inclination: 098.2856 deg RA of node: 027.6897 deg Eccentricity: 0.0081907 Arg of perigee: 220.7955 deg Mean anomaly: 138.7084 deg Mean motion: 14.41614308 rev/day Decay rate: 2.99e-06 rev/day^2 Epoch rev: 56447 Checksum: 367
Satellite: CP3 Catalog number: 31129 Epoch time: 15085.11324542 Element set: 999 Inclination: 097.9721 deg RA of node: 054.5332 deg Eccentricity: 0.0096024 Arg of perigee: 211.9875 deg Mean anomaly: 279.5126 deg Mean motion: 14.55604464 rev/day Decay rate: 1.266e-05 rev/day^2 Epoch rev: 42103 Checksum: 302
Satellite: CO-65 Catalog number: 32785 Epoch time: 15085.81381477 Element set: 999 Inclination: 097.6594 deg RA of node: 132.3835 deg Eccentricity: 0.0012865 Arg of perigee: 344.8482 deg Mean anomaly: 141.4601 deg Mean motion: 14.86551628 rev/day Decay rate: 2.427e-05 rev/day^2 Epoch rev: 37399 Checksum: 359
Satellite: PRISM Catalog number: 33493 Epoch time: 15085.79032776 Element set: 999 Inclination: 098.2530 deg RA of node: 279.2027 deg Eccentricity: 0.0015723 Arg of perigee: 239.1823 deg Mean anomaly: 120.7848 deg Mean motion: 14.92477621 rev/day Decay rate: 4.630e-05 rev/day^2 Epoch rev: 33428 Checksum: 325
Satellite: SOHLA-1 Catalog number: 33496 Epoch time: 15084.94693954 Element set: 999 Inclination: 098.1988 deg RA of node: 212.1891 deg Eccentricity: 0.0007519 Arg of perigee: 072.6817 deg Mean anomaly: 065.5842 deg Mean motion: 14.71255774 rev/day Decay rate: 7.75e-06 rev/day^2 Epoch rev: 33093 Checksum: 360
Satellite: TISAT-1 Catalog number: 36799 Epoch time: 15085.86165985 Element set: 999 Inclination: 098.0115 deg RA of node: 185.3341 deg Eccentricity: 0.0014354 Arg of perigee: 116.4675 deg Mean anomaly: 001.3174 deg Mean motion: 14.87920479 rev/day Decay rate: 4.697e-05 rev/day^2 Epoch rev: 25471 Checksum: 346
Satellite: STUDSAT Catalog number: 36801 Epoch time: 15085.32497966 Element set: 999 Inclination: 098.0533 deg RA of node: 200.4495 deg Eccentricity: 0.0005635 Arg of perigee: 072.4419 deg Mean anomaly: 348.5261 deg Mean motion: 15.08117408 rev/day Decay rate: 2.9987e-04 rev/day^2 Epoch rev: 25546 Checksum: 336
Satellite: ALMASAT-1 Catalog number: 38078 Epoch time: 15084.52092164 Element set: 999 Inclination: 069.4562 deg RA of node: 090.5255 deg Eccentricity: 0.0507730 Arg of perigee: 012.5813 deg Mean anomaly: 348.7464 deg Mean motion: 14.71502005 rev/day Decay rate: 5.9767e-04 rev/day^2 Epoch rev: 16269 Checksum: 328
Satellite: XATCOBEO Catalog number: 38082 Epoch time: 14243.34478676 Element set: 999 Inclination: 069.3815 deg RA of node: 097.0364 deg Eccentricity: 0.0033293 Arg of perigee: 225.1799 deg Mean anomaly: 135.4582 deg Mean motion: 16.41261006 rev/day Decay rate: 1.3583328e-01 rev/day^2 Epoch rev: 13623 Checksum: 330
Satellite: CUBEBUG-1 Catalog number: 39153 Epoch time: 15085.82296959 Element set: 999 Inclination: 098.0188 deg RA of node: 170.4334 deg Eccentricity: 0.0018141 Arg of perigee: 155.8392 deg Mean anomaly: 204.3674 deg Mean motion: 14.78924097 rev/day Decay rate: 2.420e-05 rev/day^2 Epoch rev: 10330 Checksum: 323
Satellite: ESTCUBE-1 Catalog number: 39161 Epoch time: 15085.83070470 Element set: 999 Inclination: 098.0737 deg RA of node: 169.4832 deg Eccentricity: 0.0009097 Arg of perigee: 210.7732 deg Mean anomaly: 149.2922 deg Mean motion: 14.70928009 rev/day Decay rate: 1.469e-05 rev/day^2 Epoch rev: 10113 Checksum: 314
Satellite: DUCHIFAT-1 Catalog number: 40021 Epoch time: 15085.65256736 Element set: 999 Inclination: 097.9610 deg RA of node: 345.9969 deg Eccentricity: 0.0015380 Arg of perigee: 094.3650 deg Mean anomaly: 265.9328 deg Mean motion: 14.87445092 rev/day Decay rate: 3.423e-05 rev/day^2 Epoch rev: 4153 Checksum: 328
Satellite: NANOSATCBR1 Catalog number: 40024 Epoch time: 15085.55408472 Element set: 999 Inclination: 097.9599 deg RA of node: 345.7540 deg Eccentricity: 0.0014433 Arg of perigee: 092.2248 deg Mean anomaly: 268.0638 deg Mean motion: 14.87103577 rev/day Decay rate: 2.911e-05 rev/day^2 Epoch rev: 4151 Checksum: 318
